This demonstration page uses our WeatherBlox Daily Observations layout. Learn more.

Left ArrowRight Arrow

41.55636, -103.73856

Hourly Observations for June 12, 2015

Temp ( °F °C ) Dew Point ( °F °C ) Humidity (%) Winds ( mph kmh ) Pressure ( in mb ) Visibility ( mi km ) Precip ( " mm )
12:17 am 00:17 Cloudy with Mist and Fog 58 14.4 56 13.3 93 93 ENE 6 9 29.91 1013 6 9.65604 0 0.0254
12:28 am 00:28 Cloudy with Mist and Fog 57 14 57 14 100 100 E 5 7 29.91 1013 6 9.65604 0 0
12:53 am 00:53 Cloudy 58 14.4 56 13.3 93 93 ESE 5 7 29.93 1014 9 14.48406 0.01 0.254
1:46 am 01:46 Cloudy 58 14.4 56 13.3 93 93 ESE 5 7 29.88 1012 10 16.0934 0 0
1:53 am 01:53 Cloudy 58 14.4 56 13.3 93 93 E 5 7 29.91 1013 10 16.0934 0 0
2:53 am 02:53 Cloudy 58 14.4 56 13.3 93 93 SE 8 13 29.91 1013 10 16.0934 0 0
3:10 am 03:10 Cloudy 57 14 55 13 94 94 SE 6 9 29.88 1012 10 16.0934 0 0
3:43 am 03:43 Cloudy 58 14.4 56 13.3 93 93 ESE 6 9 29.88 1012 10 16.0934 0 0
3:53 am 03:53 Cloudy 57 13.9 55 12.8 93 93 SE 8 13 29.91 1013 10 16.0934 0 0
4:12 am 04:12 Cloudy 57 14 55 13 94 94 SE 7 11 29.88 1012 8 12.87472 0 0
4:21 am 04:21 Cloudy 57 13.9 56 13.3 96 96 SE 7 11 29.88 1012 8 12.87472 0 0
4:36 am 04:36 Cloudy 57 13.9 55 12.8 93 93 SE 6 9 29.88 1012 10 16.0934 0 0
4:51 am 04:51 Cloudy 57 14 55 13 94 94 SE 6 9 29.88 1012 10 16.0934 0 0
4:53 am 04:53 Cloudy 57 13.9 55 12.8 93 93 SE 5 7 29.93 1014 9 14.48406 0 0
5:22 am 05:22 Cloudy 57 14 55 13 94 94 SE 6 9 29.88 1012 9 14.48406 0 0
5:44 am 05:44 Cloudy 57 14 55 13 94 94 ESE 6 9 29.91 1013 7 11.26538 0 0
5:53 am 05:53 Cloudy with Mist and Fog 57 13.9 55 12.8 93 93 SE 6 9 29.94 1014 5 8.0467 0 0
6:29 am 06:29 Cloudy 57 13.9 55 12.8 93 93 ESE 7 11 29.88 1012 10 16.0934 0 0.0254
6:37 am 06:37 Cloudy 57 14 55 13 94 94 ESE 6 9 29.88 1012 10 16.0934 0 0
6:53 am 06:53 Cloudy 58 14.4 55 12.8 90 90 ESE 6 9 29.93 1014 10 16.0934 0 0.0254
7:35 am 07:35 Cloudy 59 15 56 13.3 90 90 SE 9 15 29.91 1013 10 16.0934 0 0
7:53 am 07:53 Cloudy 59 15 56 13.3 90 90 SE 9 15 29.93 1014 10 16.0934 0 0
8:32 am 08:32 Mostly Cloudy 61 16 55 13 83 83 SSE 7 11 29.91 1013 10 16.0934 0 0
8:53 am 08:53 Mostly Cloudy 63 17.2 56 13.3 78 78 SE 9 15 29.93 1014 10 16.0934 0 0
9:01 am 09:01 Mostly Cloudy 63 17.2 56 13.3 78 78 SSE 9 15 29.85 1011 10 16.0934 0 0
9:10 am 09:10 Mostly Cloudy 63 17 55 13 77 77 SSE 8 13 29.85 1011 10 16.0934 0 0
9:19 am 09:19 Mostly Cloudy 64 17.8 54 12.2 70 70 SSE 12 19 29.83 1010 10 16.0934 0 0
9:23 am 09:23 Partly Cloudy 64 17.8 54 12.2 70 70 SE 10 17 29.83 1010 10 16.0934 0 0
9:53 am 09:53 Mostly Sunny 64 17.8 54 12.2 70 70 SSE 9 15 29.91 1013 10 16.0934 0 0
10:17 am 10:17 Mostly Cloudy 66 18.9 55 12.8 68 68 SE 12 19 29.83 1010 10 16.0934 0 0
10:53 am 10:53 Cloudy 65 18.3 55 12.8 70 70 SSE 10 17 29.9 1012 10 16.0934 0 0
11:22 am 11:22 Cloudy 66 19 55 13 68 68 SSE 10 17 29.8 1009 10 16.0934 0 0
11:53 am 11:53 Cloudy 67 19.4 57 13.9 71 71 S 7 11 29.88 1012 10 16.0934 0 0
12:53 pm 12:53 Partly Cloudy 70 21.1 57 13.9 64 64 S 10 17 29.85 1011 10 16.0934 0 0
1:53 pm 13:53 Sunny 70 21.1 56 13.3 61 61 SSE 13 20 29.83 1010 10 16.0934 0 0
2:53 pm 14:53 Sunny 71 21.7 56 13.3 59 59 S 8 13 29.81 1010 10 16.0934 0 0
3:53 pm 15:53 Sunny 73 23 55 13 53 53 SSE 7 11 29.71 1006 10 16.0934 0 0
4:53 pm 16:53 Sunny 74 23.3 57 13.9 56 56 SE 9 15 29.78 1008 10 16.0934 0 0
5:53 pm 17:53 Sunny 73 22.8 56 13.3 55 55 ESE 10 17 29.77 1008 10 16.0934 0 0
6:53 pm 18:53 Sunny 74 23.3 55 12.8 52 52 ESE 12 19 29.76 1008 10 16.0934 0 0
7:53 pm 19:53 Sunny 71 21.7 58 14.4 63 63 ESE 9 15 29.77 1008 10 16.0934 0 0
8:53 pm 20:53 Clear 64 17.8 59 15 84 84 ESE 8 13 29.78 1009 10 16.0934 0 0
9:53 pm 21:53 Clear 64 17.8 57 13.9 78 78 SE 9 15 29.8 1009 10 16.0934 0 0
10:53 pm 22:53 Clear 61 16.1 56 13.3 84 84 ESE 8 13 29.8 1009 10 16.0934 0 0
11:53 pm 23:53 Clear 58 14.4 55 12.8 90 90 ESE 8 13 29.78 1009 10 16.0934 0 0

Powered by AerisWeather